Tracking 31027 objects as of 19-Jul-2025
HD Live streaming from Space Station
objects crossing your sky now

DELTA 1 DEB

Track DELTA 1 DEB now!
10-day predictions


NORAD ID: 12193
Int'l Code: 1978-026AJ
Perigee: 769.7 km
Apogee: 1,131.5 km
Inclination: 98.9 °
Period: 103.9 minutes
Semi major axis: 7321 km
RCS: 0.0173 m2 (small)
Launch date: March 5, 1978
Source: United States (US)
Launch site: AIR FORCE WESTERN TEST RANGE (AFWTR)

Note: This is SATELLITE DEBRIS
Your satellite tracking list
Your tracking list is empty




NASA's NSSDC Master Catalog

Two Line Element Set (TLE):
1 12193U 78026AJ  25199.51689046  .00001550  00000-0  10927-2 0  9996
2 12193  98.8666  45.3459 0247117  24.1905 337.0626 13.85781427204834
Source of the keplerian elements: AFSPC